Torna al catalogo

COSMOS 2251 DEB

AttivoLEO
NORAD 34045·DEBRIS·🇷🇺 Russia

Lanciato Jun 16, 1993 da Plesetsk Cosmodrome

Loading…

Prossimi Passaggi (prossime 24 ore)

TLE

AggiornatoSource: Space-Track

Epoca: Sep 14, 2026, 05:25 UTC

1 34045U 93036JG  26257.22599355  .00000121  00000-0  52441-4 0  9993
2 34045  74.0398 166.7114 0026683 187.8895 327.2088 14.34186892919821

Traccia COSMOS 2251 DEB in tempo reale con AllMySat

Download on the App Store